Temp
23 24 24 24 24 24 24 24 24 24 23 23 22 22 22 21 21 21 21 21 22 22 21 21 21 21 21 21 21 21 20 20 20 21 21 20 19 19 18 19 19 18 17
25 24 24 24 24 24 24 24 24 24 23 23 22 22 21 21 21 21 21 21 21 21 21 21 21 21 21 21 21 21 20 20 19 19 20 20 21 20 20 19 19 18 18
26 25 24 24 24 24 24 24 24 24 23 22 22 22 22 21 21 21 21 21 22 21 21 21 21 20 20 21 21 21 20 19 19 19 19 19 20 20 19 19 18 18 18
26 25 25 24 24 24 24 24 23 23 23 23 22 22 21 21 21 21 21 22 22 21 21 21 21 20 20 20 21 21 20 20 19 19 19 19 19 20 19 19 18 18 18
26 26 25 25 24 24 24 24 23 23 23 23 22 22 21 21 21 21 21 21 21 21 21 21 21 20 20 20 21 21 21 21 21 20 20 19 20 21 19 18 19 19 18
26 26 25 25 24 24 23 23 24 23 22 22 22 22 22 21 21 21 21 21 21 21 21 21 21 21 20 20 21 21 22 21 22 21 20 20 21 21 20 19 19 19 18
25 25 25 25 25 24 24 23 23 23 22 22 22 22 22 21 21 21 21 21 21 21 21 21 20 20 20 20 21 21 22 22 22 21 21 19 21 21 20 20 19 19 18
26 24 24 24 24 24 24 23 23 23 22 22 22 22 21 21 21 21 21 21 20 21 21 21 20 20 20 20 20 21 22 22 22 22 20 20 21 21 21 21 20 19 18
25 25 24 24 24 24 23 23 23 22 22 22 22 22 21 21 21 20 20 20 21 21 20 20 20 20 20 20 20 20 21 21 22 23 20 20 20 21 21 21 20 19 18
25 25 25 24 23 23 23 22 22 22 22 22 22 22 21 21 20 21 21 20 20 20 20 20 20 20 20 20 20 20 20 21 22 22 22 21 21 21 21 21 20 18 18
24 25 24 24 23 23 23 23 22 22 22 22 21 21 20 20 20 20 20 20 20 20 20 20 20 20 20 20 20 20 20 21 21 22 21 20 21 22 21 21 20 18 18
23 24 24 24 24 23 22 22 22 22 21 21 21 21 21 21 21 21 21 21 20 20 20 20 20 20 19 20 20 20 21 21 21 22 21 20 21 21 21 21 20 19 18
25 24 24 24 23 23 22 22 22 21 21 21 21 21 21 21 20 20 20 20 20 20 20 20 20 20 20 20 20 20 21 21 21 22 21 21 21 22 21 21 21 19 18
26 25 24 24 23 22 22 21 22 22 22 21 21 20 20 20 21 20 20 20 20 20 20 20 20 20 20 21 21 20 20 21 21 22 22 21 22 21 21 21 21 20 19
26 26 25 24 24 23 22 22 22 22 22 22 22 21 21 21 21 21 20 21 21 21 21 21 21 21 21 21 21 21 21 21 21 21 21 21 21 21 21 21 21 20 19
27 26 26 25 25 24 23 23 22 23 23 23 22 22 21 21 21 21 21 21 21 21 21 21 21 21 21 21 21 21 21 21 21 21 22 21 21 21 21 21 21 20 20
29 28 27 26 25 25 24 24 24 24 23 22 22 22 22 22 21 21 21 21 21 21 22 21 22 21 21 21 21 22 21 22 22 21 21 21 21 21 21 21 21 20 20
30 28 28 26 26 25 24 24 24 24 24 23 23 23 22 22 22 21 21 21 22 22 22 22 21 21 22 22 22 22 22 22 22 21 21 21 21 21 21 21 20 20 20
33 30 27 27 26 25 24 24 25 25 24 24 24 23 23 23 22 22 22 22 22 22 22 22 22 22 22 22 22 22 22 22 22 22 22 21 21 21 21 21 21 20 20
35 31 28 27 26 25 23 23 23 24 25 24 24 24 24 24 23 23 22 22 22 22 22 22 22 22 22 22 22 22 22 22 22 22 22 21 21 21 22 21 20 20 20
35 32 28 27 25 24 23 23 22 23 23 24 23 24 24 24 23 23 22 22 22 22 21 21 22 22 22 21 21 20 21 22 22 23 22 21 21 21 21 21 21 20 19
32 32 28 26 25 25 24 23 23 22 23 23 23 23 23 24 24 23 23 21 21 21 21 21 21 21 21 21 20 19 18 20 21 21 22 21 21 20 20 20 20 20 19
29 28 27 26 26 25 24 23 23 22 22 22 22 23 23 24 24 24 23 22 21 20 21 20 21 21 20 20 20 20 17 19 16 19 19 20 20 19 19 18 18 18 18
28 28 28 26 25 25 24 23 23 22 22 22 23 23 24 24 24 24 24 23 22 21 20 20 21 21 20 20 20 20 20 19 15 15 16 17 17 16 16 17 17 16 17
28 28 28 28 27 25 25 24 24 24 24 24 24 24 24 25 24 24 24 24 23 21 20 20 20 20 20 19 20 20 18 19 18 16 17 13 15 15 15 16 17 17 16
26 27 27 28 28 26 25 25 25 25 24 24 24 23 24 24 24 24 23 22 21 21 21 21 20 20 20 19 19 19 19 18 18 15 15 15 14 15 17 16 15 15 16
Height
790 792 795 799 798 801 803 806 808 812 816 819 820 822 823 824 825 827 828 829 830 831 832 833 834 835 835 836 836 836 836 837 836 836 836 835 835 835 835 835 834 834 834
783 789 794 797 798 800 802 806 809 812 816 819 821 823 824 826 827 828 829 830 831 832 833 834 835 836 836 837 837 837 837 838 839 838 838 838 837 838 837 837 837 837 837
781 788 793 795 798 800 802 805 809 812 816 819 822 823 824 826 827 828 830 830 831 832 833 835 836 837 837 837 838 838 839 840 841 841 841 842 841 840 840 839 839 839 838
781 786 791 794 797 800 802 804 808 811 814 818 821 823 825 826 827 828 829 830 831 832 834 835 836 837 838 838 838 839 839 840 841 842 843 843 842 841 841 840 840 838 838
782 786 789 793 796 799 801 803 807 811 814 817 820 822 824 826 827 829 830 830 831 832 833 835 835 836 837 838 838 839 839 839 840 841 841 841 840 840 840 840 840 839 838
783 787 791 793 796 798 801 804 806 810 813 816 819 821 823 825 827 828 829 830 831 831 832 833 834 835 836 836 837 838 838 838 839 839 841 841 838 838 838 839 839 838 838
786 790 792 794 796 798 801 804 807 810 813 815 818 820 822 824 826 827 828 829 830 830 831 832 833 834 835 835 836 836 837 837 837 838 838 839 838 837 837 837 837 836 836
784 791 794 796 797 799 801 804 807 810 812 814 817 819 822 824 825 826 827 829 830 830 830 831 832 833 834 835 835 835 835 835 835 835 835 836 835 835 835 835 835 836 836
783 789 795 797 798 800 802 804 806 809 812 814 815 818 820 822 823 826 827 828 828 829 830 831 831 832 833 834 834 834 834 834 833 833 835 835 833 832 834 834 834 834 835
783 787 791 795 797 799 801 804 807 810 811 813 815 817 819 821 822 823 824 826 828 829 829 830 831 831 831 832 833 833 833 833 832 831 831 831 831 831 831 832 833 834 834
784 786 789 791 796 798 800 802 804 807 809 811 814 816 818 820 821 822 823 825 826 826 827 828 829 829 830 830 831 831 831 831 830 829 829 830 829 828 829 829 830 832 833
780 783 785 788 790 796 800 801 802 805 807 809 811 813 815 817 819 820 821 822 823 824 825 826 827 828 828 828 828 828 828 828 828 827 827 827 828 827 827 827 829 830 831
773 779 782 784 787 789 794 798 802 805 807 808 809 810 813 815 817 817 818 820 820 822 822 823 823 824 824 825 825 825 825 825 824 824 824 824 825 824 824 825 825 827 828
767 770 774 779 783 787 789 792 796 798 802 804 807 810 811 812 813 815 816 817 818 818 819 819 819 819 820 820 821 821 821 821 821 821 821 821 822 821 821 822 822 822 823
758 761 764 770 775 780 786 788 790 793 795 798 801 803 805 808 809 811 812 813 814 815 816 816 815 815 816 816 816 816 816 816 817 817 818 818 818 818 818 818 818 818 819
747 753 757 760 765 771 777 783 784 786 788 792 794 797 800 801 803 806 807 808 809 810 811 811 811 811 811 811 811 811 811 810 811 812 812 813 814 814 813 813 813 813 814
737 740 746 750 755 760 767 773 778 781 784 785 787 789 793 796 798 800 802 803 804 805 806 806 807 807 806 806 805 805 804 805 805 806 806 805 806 807 807 807 808 808 808
730 735 737 741 745 749 755 763 770 775 778 780 780 782 785 788 791 794 795 795 795 799 801 801 800 800 801 800 799 798 798 797 797 798 799 798 798 798 799 800 801 802 803
722 725 730 735 738 742 746 751 759 767 771 775 778 779 778 779 783 787 789 789 791 792 792 793 794 794 793 793 792 792 791 789 789 789 788 789 788 788 789 790 792 794 796
714 718 723 728 731 737 744 751 754 758 764 768 771 772 776 775 775 778 781 783 786 787 786 787 785 786 786 785 787 785 784 783 782 781 781 782 781 782 782 782 783 784 787
709 711 716 724 727 734 740 745 750 751 755 760 764 769 771 772 773 773 774 776 779 779 780 781 783 782 781 781 784 780 779 779 777 774 775 776 775 775 776 777 777 777 778
705 705 712 717 721 727 733 738 744 748 751 755 759 762 767 769 770 770 769 770 773 775 776 777 779 778 776 777 777 778 777 772 767 767 767 766 765 767 767 769 771 771 771
706 709 709 712 718 724 729 736 743 749 752 755 757 759 760 763 765 764 764 766 767 769 769 770 771 772 771 769 766 769 771 760 757 754 753 754 757 757 756 761 763 765 764
706 710 710 714 717 720 725 731 737 740 745 746 749 752 754 756 756 758 757 757 758 759 759 762 761 760 763 761 764 760 756 753 757 756 750 749 752 746 756 754 756 758 757
704 705 708 710 713 719 724 727 732 737 738 741 745 747 750 749 749 750 750 752 752 751 753 752 752 753 752 752 751 752 749 748 746 748 749 754 736 754 752 752 752 751 750
705 706 707 709 710 713 719 725 730 733 736 740 742 744 745 745 744 744 744 744 745 745 744 745 745 746 744 744 743 741 740 737 736 738 730 735 749 741 740 747 747 744 744
Wind_Speed
29 28 26 28 27 25 23 21 20 18 16 16 16 15 16 16 16 15 15 14 14 14 14 13 14 14 15 16 17 17 17 17 18 18 17 16 16 18 13 12 14 15 15
35 29 27 28 27 25 24 21 19 18 16 16 15 14 14 14 14 14 13 12 12 13 12 13 13 13 14 15 15 14 13 15 17 19 16 15 14 14 13 13 13 13 13
35 30 27 28 27 25 23 22 20 18 17 15 15 14 14 13 12 12 12 11 11 11 11 12 12 12 12 12 12 12 10 9 9 10 12 10 13 12 12 12 12 13 12
35 32 29 28 27 25 23 22 20 19 18 16 15 14 13 12 12 11 11 10 10 10 10 10 10 10 9 9 9 10 7 5 3 1 1 4 7 9 10 11 11 11 11
34 31 29 29 27 25 24 22 20 19 18 17 16 15 14 12 12 11 11 10 10 10 10 10 10 9 8 7 7 7 6 4 2 3 7 15 8 7 7 9 8 8 9
30 30 29 28 27 25 23 22 21 21 19 18 16 15 14 13 12 11 11 10 10 10 10 10 10 10 8 7 6 6 6 5 3 1 5 14 7 5 6 6 6 7 8
27 27 28 27 26 25 24 22 22 21 20 19 17 17 16 15 14 13 12 12 12 11 11 10 10 10 9 8 7 6 7 6 6 3 8 18 7 5 5 5 4 4 5
22 23 26 25 24 23 23 22 21 21 20 19 18 17 16 15 14 14 13 12 12 12 12 11 11 11 10 9 9 8 7 8 8 5 3 19 12 7 4 3 4 3 2
22 22 25 24 23 22 22 22 22 21 20 19 18 18 17 17 15 14 14 14 14 14 13 12 12 11 11 10 9 9 9 9 10 9 4 14 13 8 6 5 5 4 2
25 24 25 25 24 24 23 22 21 20 20 19 19 18 18 17 16 16 16 16 15 14 14 13 13 12 12 11 11 11 11 11 11 10 10 9 17 11 9 7 7 6 5
26 25 24 29 27 25 24 23 22 22 21 20 20 19 19 19 18 17 17 17 17 16 16 15 15 14 14 13 13 13 13 13 12 12 12 13 19 15 12 10 9 8 7
29 27 24 28 31 27 25 25 25 24 24 23 23 22 22 21 20 18 18 18 18 18 17 17 16 16 16 16 15 14 15 14 16 16 15 17 22 17 13 12 11 10 9
32 29 27 24 32 31 29 26 25 25 24 25 24 24 24 22 21 20 17 19 20 20 20 20 19 20 20 19 18 17 16 16 17 17 18 19 22 18 15 14 14 13 13
36 36 32 28 29 31 31 28 28 29 28 28 27 26 25 25 24 23 23 22 23 22 22 23 23 22 22 22 21 20 18 19 19 15 19 20 22 21 17 15 16 16 15
37 41 39 36 33 32 31 31 31 31 30 32 31 30 29 28 27 24 24 27 26 25 25 23 25 24 23 20 19 18 21 19 18 22 21 15 23 22 20 17 18 18 18
41 41 44 42 40 37 36 34 33 33 32 30 30 30 32 32 30 28 27 27 29 26 26 25 23 24 24 24 26 23 24 25 26 24 25 22 21 24 22 20 20 21 21
41 48 48 48 45 44 42 38 36 34 33 34 32 31 30 31 32 29 31 31 32 29 28 29 28 29 29 30 30 28 28 30 28 27 26 28 25 26 26 25 23 23 24
39 40 51 46 49 49 47 44 42 30 34 33 36 35 34 35 35 34 32 34 34 33 30 31 29 28 33 32 30 29 31 30 32 32 31 31 34 33 31 30 28 27 26
35 44 44 44 50 51 47 46 43 42 30 36 28 35 35 37 37 38 37 36 34 34 34 33 35 35 34 31 32 31 33 33 32 34 37 36 38 37 37 35 33 30 28
28 39 46 45 49 47 38 33 38 39 43 30 34 39 32 37 36 38 41 39 37 32 34 37 37 37 37 39 36 33 37 37 30 32 41 40 41 42 38 36 36 34 32
25 27 41 39 38 39 34 34 32 36 36 39 36 29 37 32 38 38 41 42 40 40 39 34 38 38 36 34 28 30 33 37 38 42 38 29 39 43 39 39 37 36 36
6 19 36 40 42 44 38 35 28 29 32 35 36 34 34 32 37 37 41 39 40 39 36 36 35 30 30 30 22 10 7 19 36 38 39 40 41 36 34 34 36 38 38
17 20 30 39 42 40 33 30 22 21 21 20 27 33 35 34 37 39 39 40 36 37 38 38 35 36 30 29 34 22 3 11 0 16 36 41 39 35 35 36 37 39 37
5 9 13 27 34 38 36 31 29 25 19 29 30 27 27 34 38 40 42 42 42 41 38 34 40 40 34 32 28 37 39 14 5 3 9 22 24 24 29 33 33 36 37
4 3 7 14 31 29 34 33 32 27 28 25 23 24 27 26 31 40 44 47 43 41 38 39 37 35 36 35 34 30 27 30 31 8 7 8 17 47 37 29 34 40 38
6 6 5 12 15 29 36 28 27 28 22 17 14 13 16 18 19 19 33 41 43 46 43 40 41 39 39 35 34 34 31 13 12 5 4 10 17 24 28 35 41 42 43
Wind_Direction
151 151 155 156 147 144 139 136 134 134 135 134 131 125 120 118 115 113 111 111 113 116 115 112 111 110 105 101 98 96 93 93 91 87 86 90 91 88 90 71 74 73 72
153 150 158 156 153 150 145 143 141 142 144 144 142 136 131 126 121 119 119 120 120 119 117 117 115 113 109 105 105 102 101 99 98 85 82 85 84 83 81 78 78 80 79
151 153 158 157 158 156 151 149 151 151 153 154 152 148 144 141 136 132 131 128 128 128 128 126 123 120 113 110 111 114 112 109 115 110 67 71 83 79 81 78 75 74 75
153 155 158 160 162 161 158 157 159 160 160 163 161 160 157 154 149 147 143 141 141 141 138 138 135 131 124 117 121 125 130 132 140 183 137 125 101 80 81 79 77 73 70
154 157 160 164 166 166 165 164 165 169 169 169 170 170 168 167 163 161 158 156 157 156 156 156 152 150 147 138 130 136 146 162 179 40 8 185 141 88 94 85 82 82 76
156 161 163 166 167 170 172 170 171 174 176 177 177 179 180 179 177 175 174 171 172 171 173 174 170 173 174 169 165 162 177 190 181 75 93 186 155 109 111 106 97 82 75
160 168 167 169 169 172 176 177 177 178 181 183 185 186 188 189 190 188 190 187 186 187 189 193 188 189 192 192 195 195 201 214 230 284 355 197 186 152 137 126 124 108 103
158 172 172 173 174 176 179 182 184 184 184 188 191 193 197 199 200 199 199 201 201 202 201 204 204 205 207 213 216 219 220 229 237 250 12 203 204 186 173 180 159 142 111
160 172 182 180 181 182 184 186 188 190 191 193 197 199 202 205 206 211 214 214 210 211 214 217 218 219 222 228 234 240 243 243 246 245 215 210 199 197 210 223 200 187 197
168 178 187 190 189 189 189 192 193 196 199 202 204 206 209 212 214 215 218 220 223 225 224 226 230 232 233 236 243 249 254 255 250 245 250 227 212 215 222 234 222 208 208
175 183 189 195 197 197 197 196 199 203 205 206 208 211 214 217 220 223 226 228 228 229 232 234 236 238 241 245 248 254 259 261 257 246 247 239 224 225 231 237 229 221 225
179 188 196 201 199 201 205 205 205 207 208 209 211 214 217 221 224 229 233 233 233 234 239 241 242 244 247 248 250 254 256 258 257 246 254 264 224 224 234 235 236 232 233
186 192 198 205 204 201 205 212 215 216 216 216 218 219 222 225 227 230 237 235 236 236 239 241 243 244 247 252 255 255 250 260 265 245 252 246 222 232 234 235 240 236 236
188 196 202 205 205 208 205 211 216 216 220 222 223 225 227 228 229 228 234 240 241 242 245 247 247 249 252 255 257 252 247 260 254 250 259 242 244 234 235 239 242 239 239
188 193 201 201 202 206 209 208 217 219 222 228 228 226 227 228 230 227 231 236 240 243 247 250 247 247 246 247 244 242 242 247 249 248 254 262 242 234 237 243 244 242 240
191 192 195 203 203 204 206 208 216 216 222 222 226 227 226 229 229 226 227 233 237 240 243 245 243 244 245 246 242 237 240 241 246 244 254 256 247 237 241 245 247 245 244
191 194 191 199 203 203 205 207 210 220 220 221 222 224 225 225 229 229 226 229 233 239 245 243 241 242 243 244 243 242 238 242 245 241 241 251 244 243 240 239 245 246 246
193 189 195 193 199 200 202 205 207 210 217 222 222 225 226 227 227 226 226 230 231 233 239 242 239 237 236 237 238 245 250 248 242 238 237 239 244 242 242 241 240 244 246
209 193 192 191 197 200 199 202 206 211 214 221 221 227 225 227 227 226 227 230 234 234 235 237 241 245 244 241 242 246 251 249 241 241 237 236 239 240 240 236 236 238 243
215 197 194 190 198 197 192 195 203 210 218 221 228 230 228 229 228 228 229 234 232 235 239 239 240 242 242 245 245 247 248 250 250 244 241 239 237 238 241 237 234 231 234
250 195 187 186 190 185 186 190 197 205 212 223 232 235 236 235 233 232 231 232 235 236 239 244 243 244 243 242 242 250 253 254 253 250 249 249 240 237 236 236 236 232 229
189 182 185 186 187 189 192 195 198 202 213 221 229 235 242 240 239 239 237 233 233 235 240 243 243 244 247 243 234 239 258 266 253 249 249 247 243 236 234 230 234 238 235
84 179 179 184 190 190 193 190 196 205 217 224 235 242 241 244 243 243 243 240 234 234 237 240 242 241 246 245 235 224 203 240 107 240 240 243 246 240 234 238 231 232 232
73 115 157 195 192 191 194 187 188 192 198 222 231 236 243 244 242 244 246 244 242 235 233 235 240 238 239 248 249 238 236 239 238 283 242 234 236 275 244 234 229 233 237
51 76 142 151 203 194 190 195 197 204 219 224 230 240 246 253 252 247 246 244 244 236 235 236 239 238 237 244 245 245 243 240 244 259 268 8 348 269 251 242 240 240 244
91 89 113 152 151 196 196 191 201 212 218 223 232 248 259 266 272 277 259 248 242 242 240 243 245 249 246 247 247 243 239 229 234 202 269 289 242 234 242 247 247 248 252